Temp
84 87 79 79 79 79 79 79 79 78 78 78 78 78 78 78 78 78 78 78 78 79 79 79 79 78 78 78 78 77 77 78 78 78 79 78 78 79 80 80 80 86 79
88 87 78 79 79 79 79 79 78 78 78 78 78 78 78 78 78 78 78 78 78 79 79 79 78 78 78 78 78 77 77 77 77 77 78 78 77 78 78 80 81 84 79
85 85 83 78 79 79 79 78 78 78 78 78 78 78 77 78 78 78 77 78 78 79 79 78 78 78 78 78 78 77 77 77 77 77 77 86 84 78 80 79 81 80 79
85 84 85 78 78 79 79 78 78 78 78 78 77 77 77 77 78 78 78 78 78 79 79 78 78 78 78 77 77 77 77 77 77 77 85 85 84 77 78 79 79 80 79
84 84 84 78 78 79 78 78 77 77 78 78 78 78 78 77 77 77 77 78 78 79 79 78 78 78 78 77 77 76 76 76 77 79 83 84 84 81 77 78 79 79 79
85 86 82 78 78 78 78 78 77 77 77 77 78 78 77 77 77 77 77 78 78 79 79 78 78 77 77 77 77 77 76 76 77 83 82 81 82 76 76 77 79 79 77
86 85 85 78 78 78 78 78 77 77 77 77 77 77 77 77 76 76 77 77 78 78 78 78 78 77 77 77 77 77 77 76 83 83 82 81 82 74 76 78 79 78 78
86 83 85 79 78 78 78 78 77 77 77 77 77 77 77 77 76 76 76 77 77 78 78 78 77 77 76 76 76 76 76 76 82 82 81 82 77 75 77 78 78 78 78
86 84 83 85 81 78 77 77 77 76 76 76 76 76 76 76 76 76 76 76 76 77 77 77 77 76 76 76 75 75 75 76 82 83 82 83 76 75 77 79 79 78 78
87 86 85 82 84 84 84 77 77 76 76 76 76 76 76 76 76 76 75 75 76 76 76 76 76 76 75 75 75 75 75 75 81 83 82 83 74 76 77 78 79 78 78
86 84 83 82 82 84 85 83 77 77 76 76 76 76 76 82 81 80 78 76 76 76 76 76 75 75 75 75 75 75 75 83 82 83 84 76 74 75 77 77 78 78 78
87 85 85 80 82 82 84 82 81 81 82 81 81 80 80 80 81 82 80 75 75 76 76 75 75 75 76 83 83 76 82 81 81 81 83 74 74 75 76 77 77 78 78
94 89 86 80 79 81 81 81 82 82 82 81 80 80 80 79 80 80 81 81 80 77 82 80 80 81 81 81 81 81 81 80 82 82 80 73 73 75 76 77 77 77 77
91 89 87 82 79 78 83 82 82 83 81 81 81 79 79 78 77 78 80 81 78 81 80 80 81 80 78 79 79 80 79 80 82 82 81 73 73 75 76 77 77 77 76
85 87 87 84 80 79 78 82 80 81 82 82 82 79 79 78 76 78 78 77 76 80 80 79 80 79 78 78 79 78 79 79 78 81 81 73 72 75 76 76 77 78 78
85 85 89 85 82 80 78 78 79 79 81 81 82 80 78 79 75 77 76 77 75 75 80 79 78 78 78 78 78 77 77 79 79 78 81 81 72 73 75 76 77 78 78
87 86 83 83 83 79 78 78 79 80 80 81 80 78 77 77 76 75 77 75 72 71 73 73 73 75 76 77 76 78 78 77 78 78 79 80 80 73 73 75 76 77 77
83 84 83 86 83 79 79 79 80 81 80 81 80 80 76 76 75 74 76 76 73 72 72 73 74 74 76 77 76 77 77 77 77 76 77 79 80 80 77 74 75 76 76
82 80 81 80 80 79 79 80 79 78 78 80 80 80 77 76 75 75 76 75 74 70 73 74 74 74 71 72 76 76 76 76 76 78 77 77 78 78 80 77 74 75 75
81 80 79 80 77 78 80 78 80 79 78 80 79 79 77 75 75 75 75 73 74 75 74 72 72 73 72 75 72 68 70 75 75 76 76 77 78 77 77 78 81 81 74
80 79 79 79 78 76 77 77 77 76 77 77 78 76 75 75 75 75 75 73 74 74 71 72 71 72 71 69 65 69 72 72 72 74 76 76 76 78 77 76 75 81 81
78 78 78 78 76 75 78 77 79 78 78 78 76 74 75 76 75 75 73 72 72 74 73 70 69 67 67 66 67 65 68 71 72 72 74 74 74 77 76 74 68 74 79
79 78 78 78 76 75 76 76 75 75 71 71 73 73 74 75 75 74 73 69 71 75 68 70 71 71 68 65 65 70 66 66 70 72 68 71 72 71 74 73 67 69 77
79 80 77 76 75 75 75 75 73 76 71 72 71 74 71 75 74 74 72 72 74 75 67 73 73 72 70 69 62 67 67 68 66 64 64 67 70 69 70 73 74 72 77
79 76 75 73 73 75 74 76 75 75 76 76 76 69 69 72 74 74 74 75 74 72 71 72 71 70 72 71 70 66 65 69 69 64 62 62 64 67 63 71 76 76 76
76 75 71 72 72 73 74 74 74 73 73 73 73 69 70 74 75 75 76 75 74 74 73 73 71 70 70 70 70 70 70 67 66 64 63 60 61 60 62 67 72 76 78
MSLP
1007.93 1008.17 1009.11 1009.49 1009.94 1010.29 1010.59 1011.08 1011.40 1011.67 1011.94 1012.11 1012.35 1012.52 1012.81 1012.96 1013.10 1013.32 1013.56 1013.82 1014.07 1014.38 1014.62 1014.89 1015.04 1015.10 1015.18 1015.32 1015.44 1015.55 1015.50 1015.54 1015.60 1015.62 1015.62 1015.65 1015.54 1015.50 1015.40 1015.43 1015.55 1015.38 1015.92
1006.82 1008.00 1008.81 1009.21 1009.66 1010.17 1010.50 1010.92 1011.22 1011.63 1011.84 1012.08 1012.34 1012.50 1012.64 1012.90 1013.12 1013.27 1013.44 1013.73 1014.08 1014.26 1014.49 1014.77 1015.06 1015.25 1015.37 1015.48 1015.58 1015.65 1015.67 1015.70 1015.64 1015.72 1015.71 1015.71 1015.81 1015.69 1015.56 1015.62 1015.63 1015.46 1015.92
1006.66 1007.58 1008.53 1008.86 1009.16 1009.82 1010.41 1010.85 1011.10 1011.43 1011.75 1012.00 1012.34 1012.62 1012.70 1012.86 1013.17 1013.39 1013.50 1013.59 1013.83 1014.14 1014.46 1014.77 1015.00 1015.18 1015.32 1015.50 1015.59 1015.71 1015.77 1015.76 1015.77 1015.66 1015.75 1015.38 1015.53 1015.88 1015.76 1015.64 1015.76 1015.83 1016.00
1006.63 1007.29 1008.00 1008.79 1009.10 1009.49 1010.06 1010.67 1010.95 1011.28 1011.67 1012.08 1012.36 1012.64 1012.96 1013.16 1013.32 1013.50 1013.71 1013.79 1013.81 1014.09 1014.38 1014.65 1014.92 1015.11 1015.33 1015.47 1015.56 1015.65 1015.70 1015.69 1015.68 1015.59 1015.34 1015.53 1015.55 1015.85 1015.86 1015.82 1015.79 1015.91 1015.99
1006.80 1007.32 1007.82 1008.61 1008.88 1009.39 1009.92 1010.22 1010.73 1011.11 1011.47 1011.82 1012.17 1012.44 1012.79 1013.15 1013.37 1013.50 1013.69 1013.88 1014.09 1014.01 1014.15 1014.48 1014.66 1014.84 1015.05 1015.32 1015.54 1015.63 1015.66 1015.67 1015.66 1015.50 1015.37 1015.48 1015.55 1015.57 1015.85 1015.86 1015.77 1015.81 1015.91
1006.84 1007.26 1007.78 1008.29 1008.56 1008.95 1009.48 1009.81 1010.28 1010.85 1011.33 1011.60 1011.91 1012.19 1012.51 1012.84 1013.15 1013.38 1013.68 1014.06 1014.10 1014.11 1014.24 1014.51 1014.67 1014.81 1014.83 1015.00 1015.28 1015.47 1015.58 1015.61 1015.56 1015.21 1015.37 1015.50 1015.50 1015.72 1015.74 1015.74 1015.66 1015.65 1015.84
1006.64 1007.37 1007.74 1008.17 1008.60 1009.12 1009.58 1009.66 1009.89 1010.53 1011.10 1011.46 1011.71 1011.98 1012.15 1012.59 1013.02 1013.25 1013.47 1013.70 1013.98 1014.25 1014.43 1014.49 1014.63 1014.73 1014.80 1014.87 1014.91 1015.21 1015.39 1015.48 1015.09 1015.00 1015.21 1015.33 1015.35 1015.72 1015.60 1015.41 1015.33 1015.55 1015.75
1006.35 1007.09 1007.64 1008.36 1008.68 1008.94 1009.24 1009.79 1010.10 1010.31 1010.79 1011.29 1011.49 1011.82 1012.08 1012.26 1012.66 1012.97 1013.25 1013.50 1013.74 1014.00 1014.22 1014.43 1014.46 1014.68 1014.76 1014.87 1014.91 1014.98 1015.11 1015.26 1014.95 1014.82 1015.07 1015.11 1015.41 1015.56 1015.40 1015.21 1015.04 1015.39 1015.62
1006.55 1007.14 1007.64 1007.91 1008.57 1009.21 1009.41 1009.78 1010.02 1010.41 1010.71 1011.01 1011.33 1011.58 1011.81 1012.07 1012.29 1012.60 1012.99 1013.21 1013.51 1013.83 1014.12 1014.20 1014.34 1014.52 1014.64 1014.84 1014.88 1014.88 1014.95 1015.09 1014.75 1014.55 1014.90 1014.99 1015.32 1015.43 1015.30 1015.08 1015.17 1015.33 1015.60
1006.55 1006.92 1007.53 1007.84 1008.14 1008.73 1009.01 1009.58 1009.78 1010.06 1010.37 1010.65 1010.92 1011.19 1011.43 1011.88 1012.23 1012.38 1012.73 1013.00 1013.22 1013.42 1013.76 1013.96 1014.17 1014.31 1014.46 1014.68 1014.82 1014.84 1014.87 1014.91 1014.66 1014.35 1014.52 1014.71 1015.37 1015.32 1015.24 1015.13 1015.20 1015.35 1015.55
1006.25 1006.62 1007.09 1007.45 1007.93 1008.13 1008.28 1008.70 1009.51 1009.85 1010.13 1010.53 1010.69 1011.05 1011.56 1011.66 1011.97 1012.32 1012.47 1012.60 1012.94 1013.21 1013.38 1013.64 1014.01 1014.26 1014.43 1014.57 1014.61 1014.74 1014.75 1014.15 1014.35 1014.28 1014.19 1014.79 1015.19 1015.22 1015.23 1015.21 1015.21 1015.34 1015.47
1005.47 1005.98 1006.43 1006.83 1007.10 1007.58 1007.76 1008.25 1008.65 1009.13 1009.39 1009.75 1010.05 1010.47 1011.03 1011.40 1011.63 1011.82 1012.19 1012.67 1012.83 1013.16 1013.33 1013.58 1013.84 1014.12 1014.30 1013.83 1013.90 1014.35 1013.99 1014.07 1014.21 1014.19 1014.10 1014.69 1014.88 1015.02 1015.08 1015.13 1015.17 1015.21 1015.35
1004.50 1004.74 1005.38 1006.30 1006.90 1007.27 1007.43 1007.53 1007.71 1008.26 1008.74 1008.89 1009.43 1009.93 1010.49 1010.90 1011.24 1011.73 1012.06 1012.48 1012.68 1012.98 1012.88 1013.25 1013.56 1013.58 1013.69 1013.79 1013.81 1013.83 1013.75 1013.98 1013.89 1014.01 1014.02 1014.51 1014.65 1014.71 1014.76 1014.81 1014.87 1014.99 1015.12
1004.19 1004.16 1004.52 1005.22 1005.88 1006.26 1006.70 1006.86 1007.10 1007.16 1007.67 1007.99 1008.39 1009.29 1009.82 1010.39 1010.78 1011.09 1011.41 1011.96 1012.46 1012.63 1012.64 1012.87 1012.95 1013.27 1013.52 1013.77 1013.79 1013.62 1013.62 1013.61 1013.59 1013.77 1013.82 1014.30 1014.38 1014.47 1014.49 1014.52 1014.57 1014.67 1014.83
1004.18 1003.72 1003.90 1004.46 1004.87 1005.32 1005.92 1006.06 1006.31 1006.28 1006.59 1006.84 1007.50 1008.22 1008.63 1009.06 1009.59 1010.33 1010.70 1011.25 1011.57 1011.69 1012.28 1012.54 1012.60 1012.82 1013.08 1013.38 1013.49 1013.41 1013.36 1013.46 1013.59 1013.59 1013.58 1013.95 1014.00 1014.07 1014.14 1014.25 1014.32 1014.38 1014.57
1003.65 1003.45 1003.33 1003.91 1004.11 1004.69 1004.67 1004.95 1005.03 1005.57 1005.60 1006.22 1006.56 1006.94 1007.63 1008.11 1009.08 1009.85 1010.22 1010.56 1010.75 1010.99 1011.64 1012.11 1012.20 1012.27 1012.20 1012.65 1013.12 1013.12 1013.15 1013.13 1013.19 1013.35 1013.26 1013.27 1013.76 1013.79 1013.76 1013.90 1014.00 1014.10 1014.28
1003.09 1003.06 1003.14 1003.33 1003.43 1003.76 1003.72 1003.97 1004.29 1004.39 1004.93 1005.20 1005.60 1006.29 1006.87 1007.36 1008.20 1008.71 1009.61 1010.30 1010.76 1010.74 1011.10 1011.86 1012.46 1012.67 1012.80 1012.40 1012.64 1012.73 1012.81 1012.93 1012.85 1013.03 1013.19 1013.10 1013.07 1013.43 1013.44 1013.56 1013.75 1013.85 1014.00
1002.67 1002.71 1002.57 1002.51 1002.63 1002.78 1002.75 1003.04 1003.39 1003.73 1003.95 1004.26 1004.88 1005.43 1006.23 1006.97 1007.74 1008.54 1009.01 1009.52 1010.04 1010.21 1010.91 1011.79 1012.04 1012.42 1012.27 1012.10 1012.23 1012.36 1012.52 1012.56 1012.53 1012.70 1012.82 1012.79 1012.79 1012.83 1012.92 1013.09 1013.37 1013.51 1013.82
1001.83 1001.95 1001.86 1002.01 1001.99 1001.95 1002.02 1002.35 1002.92 1003.24 1003.61 1003.88 1004.46 1004.95 1005.58 1006.31 1007.20 1008.01 1008.35 1008.94 1009.39 1010.34 1011.09 1011.44 1011.77 1011.80 1011.78 1011.87 1011.92 1012.16 1012.19 1012.23 1012.26 1012.15 1012.36 1012.43 1012.53 1012.73 1012.69 1012.57 1013.08 1013.40 1013.69
1001.08 1000.93 1001.02 1000.87 1000.86 1001.15 1001.51 1002.01 1002.37 1002.54 1003.07 1003.45 1003.77 1004.36 1005.04 1005.83 1006.58 1007.29 1007.79 1008.45 1009.10 1009.84 1010.21 1010.70 1011.18 1011.61 1011.54 1011.63 1011.90 1012.18 1012.18 1011.88 1011.92 1011.89 1011.97 1012.01 1012.08 1012.35 1012.50 1012.52 1012.58 1012.94 1013.54
1000.29 1000.19 999.83 999.90 1000.20 1000.62 1001.11 1001.49 1001.61 1001.64 1002.33 1002.95 1003.43 1004.07 1004.76 1005.52 1006.08 1006.70 1007.45 1008.19 1008.87 1009.40 1010.15 1010.35 1010.65 1011.05 1011.48 1012.01 1012.15 1011.89 1011.52 1011.44 1011.53 1011.51 1011.62 1011.67 1011.73 1011.89 1012.11 1012.39 1012.61 1012.57 1012.96
999.32 999.16 999.18 999.31 999.56 999.83 1000.05 1000.19 1000.55 1001.02 1001.74 1002.45 1003.16 1003.77 1004.42 1004.98 1005.52 1006.13 1007.11 1007.90 1008.56 1009.13 1009.81 1010.29 1010.48 1010.94 1011.33 1011.88 1011.80 1011.76 1010.66 1010.63 1010.90 1011.21 1011.34 1011.44 1011.54 1011.49 1011.75 1012.16 1012.76 1012.80 1012.86
998.53 998.49 998.66 998.69 998.92 999.05 999.49 1000.04 1000.42 1001.25 1002.07 1002.48 1002.85 1003.46 1003.91 1004.46 1005.17 1005.69 1006.57 1007.24 1007.53 1008.46 1009.35 1009.71 1009.90 1010.30 1010.70 1011.59 1011.79 1011.12 1010.72 1010.28 1010.58 1011.08 1011.34 1011.27 1011.39 1011.53 1011.61 1011.86 1012.49 1012.99 1012.72
997.77 998.06 998.14 998.09 998.23 998.45 999.13 999.24 999.52 1000.03 1000.95 1001.72 1002.53 1003.03 1003.67 1004.36 1004.95 1005.48 1006.27 1006.99 1007.64 1008.06 1008.93 1009.08 1009.61 1010.01 1010.42 1010.55 1011.58 1011.42 1011.32 1011.14 1010.62 1010.74 1011.54 1011.58 1011.53 1011.76 1011.81 1011.86 1012.12 1012.49 1012.43
997.23 997.43 997.61 997.57 997.75 998.03 998.46 998.86 999.43 1000.00 1000.57 1001.30 1001.89 1002.80 1003.72 1004.21 1004.75 1005.61 1006.13 1006.87 1007.44 1007.87 1008.51 1008.98 1009.61 1010.03 1010.15 1010.16 1010.44 1010.92 1011.13 1010.93 1010.90 1010.93 1011.00 1011.64 1012.03 1012.20 1012.31 1012.03 1011.78 1011.90 1012.33
996.93 997.18 997.50 997.33 997.44 997.84 998.23 998.71 999.21 999.90 1000.48 1001.14 1001.91 1002.77 1003.44 1003.98 1004.71 1005.36 1005.97 1006.72 1007.28 1007.74 1008.28 1008.93 1009.47 1009.80 1009.89 1010.10 1010.29 1010.36 1010.24 1010.33 1010.30 1010.73 1010.99 1011.78 1011.93 1012.48 1012.49 1012.34 1011.97 1011.96 1012.16
Wind_Speed
11 21 22 20 19 20 19 18 17 16 16 16 16 16 15 14 15 15 14 13 11 10 9 8 8 7 7 7 7 7 7 6 5 5 5 6 7 5 2 5 6 7 7
18 20 23 21 20 19 20 19 19 17 17 16 16 16 16 15 15 14 14 14 12 11 10 9 8 7 7 6 7 7 6 5 5 4 4 3 5 6 4 4 6 7 9
19 20 22 22 22 20 19 19 19 19 18 17 17 16 17 16 15 14 13 14 14 12 10 9 8 8 7 6 6 5 5 4 3 3 3 1 2 5 4 1 5 7 9
18 18 20 22 21 21 20 19 19 19 18 18 17 17 16 15 15 15 13 14 14 13 12 10 8 7 5 5 4 4 4 3 2 1 1 2 2 3 5 5 4 8 9
15 17 17 21 21 21 20 20 19 19 19 18 18 18 17 16 14 13 12 12 13 13 12 11 10 8 7 4 3 2 2 2 1 3 1 2 2 2 5 6 5 8 8
15 16 17 21 21 22 22 21 20 19 18 18 18 17 17 16 14 14 13 11 12 11 12 11 9 8 7 6 4 2 3 4 4 1 1 0 4 3 7 8 8 7 9
13 12 16 19 18 17 18 20 21 20 19 19 18 18 18 17 16 14 14 14 12 11 10 10 9 8 7 7 6 4 4 4 7 3 3 2 3 5 8 9 9 9 9
13 12 14 17 17 18 19 17 17 19 19 19 19 18 18 18 17 16 15 15 13 12 11 10 9 8 7 7 6 6 6 6 6 4 4 4 1 5 9 7 7 10 9
9 11 12 15 16 16 15 15 16 17 18 19 19 19 18 18 18 17 15 14 13 12 10 9 8 8 6 5 4 3 4 5 9 5 5 4 1 5 8 5 6 7 8
8 9 11 12 15 16 15 16 17 18 18 19 19 19 18 18 17 17 15 14 14 13 11 10 9 7 6 5 5 5 5 7 9 7 6 4 4 6 6 4 4 6 6
7 10 12 14 15 16 16 15 17 18 18 18 18 18 14 12 14 15 15 14 14 13 12 11 9 8 7 6 6 6 6 5 5 5 5 5 5 6 6 5 4 5 5
11 13 13 14 17 16 13 14 15 15 14 14 15 15 13 12 12 12 12 15 14 13 11 10 10 8 8 4 4 6 5 4 5 5 5 4 6 8 8 7 6 7 7
11 9 15 13 13 15 13 10 8 9 9 10 16 14 13 10 10 9 7 8 8 11 7 9 8 7 6 4 4 4 3 5 4 4 5 6 8 10 11 11 10 10 8
12 14 10 15 14 15 11 12 12 11 12 11 13 15 11 9 10 8 8 8 7 5 7 7 5 6 6 6 6 6 5 4 3 3 4 8 9 12 12 13 13 12 11
12 13 13 12 14 13 14 11 12 13 12 13 13 16 13 12 11 11 10 9 6 8 7 7 8 7 7 8 7 7 6 6 6 4 4 6 9 10 13 13 15 14 13
13 14 12 12 12 13 14 15 13 11 13 13 12 13 18 12 10 11 11 11 9 7 7 8 8 8 8 7 8 8 7 7 7 6 5 4 8 9 10 12 15 15 14
13 13 11 12 11 14 16 15 13 13 13 13 13 15 17 16 14 13 12 10 7 6 10 6 6 5 6 6 9 7 6 8 7 8 7 5 4 8 9 10 15 15 16
13 12 13 12 12 15 14 13 12 12 12 12 12 12 17 16 15 14 11 11 9 8 6 5 5 6 7 6 6 6 6 6 8 9 8 6 5 5 6 10 11 11 13
12 12 14 12 14 14 13 11 12 12 11 11 11 11 15 16 17 13 12 11 11 6 6 6 6 7 6 6 5 6 6 7 8 8 9 8 7 6 5 5 10 10 10
13 12 12 9 10 10 8 8 9 9 10 10 11 11 14 13 16 15 11 11 10 8 8 8 7 7 5 4 4 5 7 8 7 9 9 8 7 7 7 6 8 9 9
11 12 11 8 5 6 7 8 9 10 9 9 9 12 14 13 16 14 10 11 11 10 7 9 7 8 5 3 1 6 7 9 9 7 7 7 8 8 7 5 5 5 6
14 14 11 9 7 9 9 7 4 7 7 8 8 11 13 14 14 13 12 11 10 9 10 8 9 4 4 4 4 4 5 4 4 5 5 6 8 6 7 6 4 4 5
13 14 9 9 8 9 10 7 6 8 5 7 9 9 11 13 13 13 14 10 11 10 7 9 9 8 5 4 7 6 3 3 1 2 5 5 5 5 5 7 6 7 7
14 9 10 10 8 9 13 11 12 8 8 6 8 8 8 12 12 13 12 11 12 9 7 8 7 6 6 6 3 6 4 3 3 2 3 1 2 4 4 5 8 7 7
11 11 10 8 8 10 12 11 11 8 6 8 8 10 9 10 12 12 12 13 11 7 7 8 8 8 6 5 5 3 6 4 4 3 2 3 2 1 0 4 4 5 6
7 6 6 4 6 11 13 13 13 11 10 9 10 9 8 8 9 11 12 10 9 8 8 7 7 8 6 5 5 5 5 4 6 4 2 3 2 1 1 3 5 5 5
Wind_Direction
174 161 164 163 162 157 157 164 161 159 155 153 154 153 152 151 150 150 150 147 141 142 135 127 121 114 109 105 98 90 84 74 60 51 36 36 43 39 129 152 167 177 156
148 163 166 165 162 162 162 166 166 165 162 162 163 162 159 159 158 159 155 151 152 149 143 137 134 129 124 118 109 104 99 90 74 45 23 43 30 16 26 181 177 141 166
153 165 170 166 166 168 168 170 166 167 169 169 170 168 165 164 165 165 160 158 158 151 148 148 145 142 136 132 124 116 109 102 86 66 39 317 357 8 16 347 194 174 172
156 166 173 173 169 170 172 174 170 170 171 172 172 169 170 168 168 167 168 166 158 157 158 157 154 147 146 143 136 133 131 122 109 72 266 353 297 29 347 335 247 192 183
163 170 174 176 172 173 177 175 176 174 174 174 174 173 171 170 170 166 170 171 171 164 162 166 166 163 161 166 173 178 176 171 185 227 11 320 284 95 330 317 263 205 193
166 175 175 180 178 178 180 179 177 179 180 177 177 175 173 171 173 170 170 180 179 173 172 175 174 178 176 177 199 228 238 229 246 240 279 100 255 23 311 301 255 237 198
166 181 186 187 184 183 186 185 177 180 183 183 182 181 176 176 177 174 174 179 184 186 185 184 187 192 197 203 205 219 250 253 261 228 252 275 245 321 310 297 246 213 201
167 179 191 188 190 190 193 191 185 184 185 187 186 186 182 179 179 179 182 183 186 191 196 199 199 208 212 226 231 212 240 256 240 250 256 264 14 302 314 297 198 194 194
171 183 191 195 198 202 195 195 192 195 192 191 191 190 187 186 183 183 186 186 190 196 203 204 208 219 229 223 224 239 247 257 269 235 247 249 139 303 320 255 188 197 205
180 194 200 202 201 208 203 204 200 199 200 197 196 195 190 188 190 187 187 190 196 197 202 207 217 223 232 241 243 244 248 251 250 244 230 244 283 299 307 302 234 214 217
206 199 197 200 207 208 208 206 207 207 204 205 203 201 194 198 195 192 198 188 198 201 202 206 215 223 220 230 237 249 257 247 248 240 237 164 244 278 285 299 259 239 224
227 217 208 205 208 208 210 211 209 211 210 209 207 202 203 202 199 198 199 199 203 204 207 212 216 214 216 227 209 219 246 256 243 246 242 200 232 255 261 261 255 230 223
270 227 210 207 210 214 214 207 204 205 212 208 209 203 202 197 199 198 202 202 206 203 208 203 205 215 222 237 234 241 241 232 238 239 241 227 238 245 250 247 248 233 227
276 259 212 205 205 209 210 211 212 207 207 210 205 201 199 198 197 200 199 197 197 206 211 212 210 222 221 233 241 243 240 244 222 248 248 238 246 242 244 246 243 237 236
269 257 246 209 209 206 208 215 216 216 211 211 205 198 199 196 194 190 190 193 194 191 211 214 215 213 215 229 238 241 245 247 243 257 267 237 253 248 241 244 242 237 234
258 262 262 228 216 204 211 213 215 215 215 211 208 204 201 199 194 197 190 197 190 186 206 223 218 211 208 216 233 237 247 251 245 246 253 248 236 260 244 240 235 236 230
244 254 250 243 225 213 213 217 217 215 212 211 209 205 201 198 198 191 192 198 195 180 198 203 221 231 239 219 238 241 249 250 251 245 245 252 249 232 247 240 237 233 236
253 242 253 249 231 218 217 218 219 218 213 214 211 205 204 199 196 195 193 200 197 200 181 196 198 223 235 227 234 242 249 254 253 245 241 249 248 262 222 242 227 218 208
246 246 251 231 226 220 222 221 222 218 217 215 210 208 200 196 192 195 199 205 197 177 191 200 205 227 227 229 242 258 263 261 253 245 241 241 244 247 249 217 212 198 211
252 251 248 252 240 228 228 219 221 218 217 211 209 205 192 189 187 198 199 197 190 190 192 189 206 216 250 248 261 285 284 265 251 242 240 244 238 238 229 235 199 198 202
258 258 254 266 248 197 199 204 218 217 208 207 204 193 186 187 195 199 193 190 183 198 194 192 198 207 207 216 300 261 255 242 236 234 234 234 223 227 218 215 215 213 185
268 270 270 264 253 210 207 199 191 186 206 201 191 185 187 194 194 189 181 181 180 183 188 177 193 172 205 174 239 257 270 194 210 230 223 220 220 206 203 185 173 216 217
262 265 274 272 253 221 207 173 139 133 133 178 191 187 190 188 187 180 176 169 170 184 176 187 204 202 211 188 212 267 233 253 295 108 216 216 205 205 198 171 146 241 216
262 270 273 268 239 212 188 187 179 187 167 181 176 181 179 179 174 176 171 169 176 167 165 196 192 202 220 219 189 226 251 299 276 211 123 152 175 176 224 182 184 196 195
270 284 287 278 235 199 187 183 174 181 161 163 163 155 158 161 167 154 163 171 169 167 174 188 179 198 202 218 214 174 220 216 236 261 142 145 79 53 280 251 187 186 191
270 282 290 251 190 178 175 176 180 170 153 150 153 146 149 146 151 151 157 159 159 164 171 182 189 191 195 207 206 218 220 214 218 225 132 130 150 121 150 248 208 186 184